TimeMST,TemperatureF,Dew PointF,Humidity,Sea Level PressureIn,VisibilityMPH,Wind Direction,Wind SpeedMPH,Gust SpeedMPH,PrecipitationIn,Events,Conditions,WindDirDegrees,DateUTC
12:53 AM,17.1,10.9,77,30.18,10.0,WSW,12.7,-,N/A,,Overcast,250,2013-01-01 07:53:00
1:53 AM,17.1,12.0,81,30.18,6.0,WSW,12.7,-,0.00,Snow,Light Snow,250,2013-01-01 08:53:00
2:53 AM,18.0,14.0,84,30.19,10.0,WSW,15.0,-,0.00,,Overcast,250,2013-01-01 09:53:00
3:53 AM,19.0,15.1,85,30.20,10.0,WSW,15.0,-,N/A,,Overcast,250,2013-01-01 10:53:00
4:53 AM,19.0,16.0,88,30.20,10.0,WSW,17.3,-,N/A,,Overcast,250,2013-01-01 11:53:00
5:53 AM,19.0,15.1,85,30.20,10.0,WSW,13.8,-,N/A,,Overcast,240,2013-01-01 12:53:00
6:53 AM,17.1,12.0,81,30.20,10.0,WSW,15.0,-,N/A,,Scattered Clouds,240,2013-01-01 13:53:00
7:53 AM,17.1,12.0,81,30.20,10.0,SW,13.8,-,N/A,,Scattered Clouds,230,2013-01-01 14:53:00
8:53 AM,18.0,12.0,78,30.20,10.0,SW,13.8,-,N/A,,Clear,230,2013-01-01 15:53:00
9:53 AM,21.0,14.0,74,30.19,10.0,SW,13.8,-,N/A,,Clear,230,2013-01-01 16:53:00
10:53 AM,23.0,15.1,72,30.18,10.0,WSW,13.8,-,N/A,,Clear,240,2013-01-01 17:53:00
11:53 AM,25.0,16.0,69,30.17,10.0,WSW,15.0,-,N/A,,Clear,240,2013-01-01 18:53:00
12:53 PM,28.0,18.0,66,30.12,10.0,WSW,11.5,-,N/A,,Scattered Clouds,240,2013-01-01 19:53:00
1:53 PM,28.0,18.0,66,30.10,10.0,WSW,13.8,-,N/A,,Overcast,240,2013-01-01 20:53:00
2:53 PM,28.9,19.0,67,30.10,10.0,West,10.4,-,N/A,,Overcast,260,2013-01-01 21:53:00
3:53 PM,28.0,19.9,72,30.13,9.0,WNW,16.1,-,N/A,,Overcast,290,2013-01-01 22:53:00
4:24 PM,26.6,21.2,80,30.01,3.0,WNW,10.4,-,0.00,Snow,Light Snow,300,2013-01-01 23:24:00
4:38 PM,26.6,21.2,80,30.01,2.5,WNW,11.5,-,0.00,Snow,Light Snow,290,2013-01-01 23:38:00
4:53 PM,25.0,21.9,88,30.15,2.5,West,13.8,-,0.00,Snow,Light Snow,280,2013-01-01 23:53:00
5:04 PM,24.8,21.2,86,30.02,1.5,West,13.8,-,0.01,Snow,Light Snow,280,2013-01-02 00:04:00
5:08 PM,24.8,21.2,86,30.02,2.0,WNW,13.8,-,0.01,Snow,Light Snow,290,2013-01-02 00:08:00
5:23 PM,24.8,23.0,93,30.02,1.2,WNW,13.8,-,0.01,Snow,Light Snow,300,2013-01-02 00:23:00
5:53 PM,26.1,24.1,92,30.16,1.8,NW,19.6,-,0.02,Snow,Light Snow,310,2013-01-02 00:53:00
6:31 PM,26.6,23.0,86,30.04,2.0,NW,21.9,-,0.00,Snow,Light Snow,310,2013-01-02 01:31:00
6:43 PM,26.6,23.0,86,30.04,3.0,NW,25.3,32.2,0.00,Snow,Light Snow,310,2013-01-02 01:43:00
6:53 PM,26.1,23.0,88,30.18,3.0,NW,24.2,31.1,0.00,Snow,Light Snow,310,2013-01-02 01:53:00
7:02 PM,26.6,23.0,86,30.05,2.5,NW,26.5,31.1,0.00,Snow,Light Snow,310,2013-01-02 02:02:00
7:18 PM,26.6,23.0,86,30.06,3.0,NW,23.0,-,0.00,Snow,Light Snow,320,2013-01-02 02:18:00
7:53 PM,26.1,23.0,88,30.21,4.0,NNW,24.2,31.1,0.00,Snow,Light Snow,330,2013-01-02 02:53:00
8:36 PM,26.6,23.0,86,30.07,1.8,NW,16.1,-,0.00,Snow,Light Snow,320,2013-01-02 03:36:00
8:53 PM,25.0,23.0,92,30.22,1.2,NW,21.9,25.3,0.01,Snow,Light Snow,310,2013-01-02 03:53:00
9:53 PM,25.0,23.0,92,30.22,1.5,NW,18.4,-,0.01,Snow,Light Snow,310,2013-01-02 04:53:00
10:04 PM,24.8,23.0,93,30.09,3.0,NW,24.2,27.6,0.00,Snow,Light Snow,310,2013-01-02 05:04:00
10:13 PM,24.8,23.0,93,30.09,1.8,NW,21.9,28.8,0.00,Snow,Light Snow,310,2013-01-02 05:13:00
10:31 PM,24.8,23.0,93,30.10,2.5,NW,23.0,28.8,0.00,Snow,Light Snow,310,2013-01-02 05:31:00
10:43 PM,24.8,23.0,93,30.10,4.0,NW,20.7,27.6,0.00,Snow,Light Snow,310,2013-01-02 05:43:00
10:53 PM,25.0,21.9,88,30.23,4.0,NW,20.7,-,0.00,Snow,Light Snow,310,2013-01-02 05:53:00
11:53 PM,24.1,21.0,88,30.22,8.0,NW,24.2,29.9,0.00,,Overcast,310,2013-01-02 06:53:00